CAPE
203 217 17 0 0 0 0 0 0 0 0 0 0 0 0 0 0 0 0 0 0 0 0 0 0 0 0 0 0 0 0 0
268 260 0 0 0 0 0 0 0 0 0 0 0 0 0 0 0 0 0 0 0 0 0 0 0 0 0 0 0 0 0 0
479 0 0 0 0 0 0 0 0 0 0 0 0 0 0 0 0 0 0 0 0 0 0 0 0 0 0 0 0 0 0 0
94 0 0 0 0 0 0 0 0 0 0 0 0 0 0 0 0 0 0 0 0 0 0 0 0 0 0 0 0 0 0 0
32 0 0 0 0 0 0 0 0 0 0 0 0 0 0 0 0 0 0 0 0 0 0 0 0 0 0 0 0 0 0 0
20 0 0 0 0 0 0 0 0 0 0 0 0 0 0 0 0 0 0 0 0 0 0 0 0 0 0 0 0 0 0 0
11 0 0 0 0 0 0 0 0 0 0 0 0 0 0 0 0 0 0 0 0 0 0 0 0 0 0 0 0 0 0 0
0 0 0 0 0 0 0 0 0 0 0 0 0 0 0 0 0 0 0 0 0 0 0 0 0 0 0 0 0 0 0 0
0 0 0 0 0 0 0 0 0 0 0 0 0 0 0 0 0 0 0 0 0 0 0 0 0 0 0 0 0 0 0 0
0 0 0 0 0 0 0 0 0 0 0 0 0 0 0 0 0 0 0 0 0 0 0 0 0 0 0 0 0 0 0 0
0 0 0 0 0 0 0 0 0 0 0 0 0 0 0 0 0 0 0 0 0 0 0 0 0 0 0 0 0 0 0 0
0 0 0 0 0 0 0 0 0 0 0 0 0 0 0 0 0 0 0 0 0 0 0 0 0 0 0 0 0 0 0 0
0 0 0 0 0 0 0 0 0 0 0 0 0 0 0 0 0 0 0 0 0 0 0 0 0 0 0 0 0 0 0 0
0 0 0 0 0 0 0 0 0 0 0 0 0 0 0 0 0 0 0 0 0 0 0 0 0 0 0 0 0 0 0 0
0 0 0 0 0 0 0 0 0 0 0 0 0 0 0 0 0 0 0 0 0 0 0 0 0 0 0 0 0 0 0 0
0 0 0 0 0 0 0 0 0 0 0 0 0 0 0 0 0 0 0 0 0 0 0 0 0 0 0 0 0 0 0 0
0 0 0 0 0 0 0 0 0 0 0 0 0 0 0 0 0 0 0 0 0 0 0 0 0 0 0 0 0 0 0 0
0 0 0 0 0 0 0 0 0 0 0 0 0 0 0 0 0 0 0 0 0 0 0 0 0 0 0 0 1 0 0 0
0 0 0 0 0 0 0 0 0 0 1 1 0 0 0 0 0 0 0 0 0 0 0 0 0 0 0 2 1 1 0 0
CIN
-111 -89 -201 0 0 0 0 0 0 0 0 0 0 0 0 0 0 0 0 0 0 0 0 0 0 0 0 0 0 0 0 0
-46 -30 0 0 0 0 0 0 0 0 0 0 0 0 0 0 0 0 0 0 0 0 0 0 0 0 0 0 0 0 0 0
-17 0 0 0 0 0 0 0 0 0 0 0 0 0 0 0 0 0 0 0 0 0 0 0 0 0 0 0 0 0 0 0
-72 0 0 0 0 0 0 0 0 0 0 0 0 0 0 0 0 0 0 0 0 0 0 0 0 0 0 0 0 0 0 0
-79 0 0 0 0 0 0 0 0 0 0 0 0 0 0 0 0 0 0 0 0 0 0 0 0 0 0 0 0 0 0 0
-49 0 0 0 0 0 0 0 0 0 0 0 0 0 0 0 0 0 0 0 0 0 0 0 0 0 0 0 0 0 0 0
-142 0 0 0 0 0 0 0 0 0 0 0 0 0 0 0 0 0 0 0 0 0 0 0 0 0 0 0 0 0 0 0
0 0 0 0 0 0 0 0 0 0 0 0 0 0 0 0 0 0 0 0 0 0 0 0 0 0 0 0 0 0 0 0
0 0 0 0 0 0 0 0 0 0 0 0 0 0 0 0 0 0 0 0 0 0 0 0 0 0 0 0 0 0 0 0
0 0 0 0 0 0 0 0 0 0 0 0 0 0 0 0 0 0 0 0 0 0 0 0 0 0 0 0 0 0 0 0
0 0 0 0 0 0 0 0 0 0 0 0 0 0 0 0 0 0 0 0 0 0 0 0 0 0 0 0 0 0 0 0
0 0 0 0 0 0 0 0 0 0 0 0 0 0 0 0 0 0 0 0 0 0 0 0 0 0 0 0 0 0 0 0
0 0 0 0 0 0 0 0 0 0 0 0 0 0 0 0 0 0 0 0 0 0 0 0 0 0 0 0 0 0 0 0
0 0 0 0 0 0 0 0 0 0 0 0 0 0 0 0 0 0 0 0 0 0 0 0 0 0 0 0 0 0 0 0
0 0 0 0 0 0 0 0 0 0 0 0 0 0 0 0 0 0 0 0 0 0 0 0 0 0 0 0 0 0 0 0
0 0 0 0 0 0 0 0 0 0 0 0 0 0 0 0 0 0 0 0 0 0 0 0 0 0 0 0 0 0 0 0
0 0 0 0 0 0 0 0 0 0 0 0 0 0 0 0 0 0 0 0 0 0 0 0 0 0 0 0 0 0 0 0
0 0 0 0 0 0 0 0 0 0 0 0 0 0 0 0 0 0 0 0 0 0 0 0 0 0 0 0 0 0 0 0
0 0 0 0 0 0 0 0 0 0 0 0 0 0 0 0 0 0 0 0 0 0 0 0 0 0 0 0 0 -3 0 0
Wind_Speed
18 22 19 19 18 17 14 12 12 11 8 8 6 4 5 5 5 4 6 4 5 5 5 5 4 4 5 5 6 6 6 8
20 18 15 17 18 18 17 15 13 11 10 9 8 7 5 6 5 6 6 6 5 6 4 4 5 5 5 6 6 8 5 9
20 19 17 17 19 19 17 16 15 12 9 8 8 7 6 6 6 5 6 6 5 7 5 5 5 4 6 6 7 4 4 7
23 23 20 16 18 18 17 17 16 12 12 8 8 8 5 5 6 6 4 6 6 6 6 5 5 4 5 5 5 7 5 5
23 24 23 20 16 15 16 16 16 11 11 10 12 9 8 6 5 8 5 6 7 6 5 5 5 4 5 5 5 3 4 5
26 27 25 22 19 16 13 15 15 10 10 11 9 7 9 7 7 6 9 6 6 6 5 5 5 4 5 5 4 4 4 4
26 27 26 23 20 17 14 15 14 12 9 12 8 13 11 9 7 6 5 5 5 5 5 4 5 5 4 3 3 5 6 4
22 28 25 23 23 21 16 17 15 13 9 10 9 10 10 10 8 6 6 5 4 5 4 5 4 4 4 3 3 5 3 4
21 26 24 24 23 23 19 17 14 13 8 9 10 9 6 7 6 6 4 5 6 6 5 5 4 5 3 3 4 3 4 3
16 22 20 21 20 20 19 16 14 13 10 9 11 8 9 8 8 8 5 7 6 5 5 6 5 4 4 4 5 4 4 4
11 17 19 18 19 20 19 16 16 13 10 10 9 11 11 10 6 9 8 6 6 5 6 6 4 5 5 5 5 4 5 4
10 14 17 18 18 19 18 16 17 14 12 11 11 10 10 8 9 8 9 6 6 6 6 5 5 5 4 4 5 5 5 5
9 9 15 15 17 16 15 15 16 12 11 11 11 12 10 9 9 9 7 6 6 6 5 6 5 4 5 5 6 5 5 6
10 11 11 10 14 14 12 13 14 12 11 11 12 12 11 10 10 8 7 7 6 6 6 6 5 4 5 5 6 5 6 6
12 12 11 14 14 12 9 13 12 12 12 12 11 11 12 10 10 9 8 8 8 7 7 6 5 5 5 4 5 5 6 5
10 14 11 17 17 14 14 13 11 11 8 10 9 10 11 11 10 9 9 7 7 8 9 8 9 7 5 5 6 5 5 6
13 15 16 15 15 16 17 17 12 13 13 12 11 11 9 10 10 8 8 7 8 3 7 9 10 6 8 12 8 6 7 6
11 15 18 17 17 16 16 17 14 13 11 10 10 11 10 10 9 9 8 8 7 7 9 10 8 4 11 10 12 6 5 5
14 13 17 17 18 17 16 15 16 14 13 12 11 11 10 7 11 11 9 8 7 7 7 8 8 5 10 11 11 6 6 6
Wind_Direction
182 194 177 166 154 152 162 161 163 139 137 132 153 122 119 106 98 99 87 83 51 21 71 58 1 35 25 17 359 354 322 353
175 191 168 162 148 156 165 167 157 156 158 158 155 148 130 110 106 107 89 70 47 49 40 52 26 28 38 15 15 347 351 2
175 165 167 167 159 162 166 164 167 173 170 163 160 138 135 127 114 92 86 81 56 77 45 44 34 8 45 20 26 344 351 26
175 167 170 169 164 167 170 165 172 187 172 133 122 102 108 124 140 125 97 90 76 62 58 47 28 34 45 31 28 14 353 13
178 167 167 171 163 167 170 167 176 189 147 142 145 151 157 155 130 120 112 93 77 67 60 53 49 41 48 29 27 14 17 13
178 170 168 167 157 168 172 168 181 159 155 154 168 146 118 114 109 129 116 103 95 84 69 64 57 52 49 60 5 34 58 40
173 168 164 167 158 160 170 170 180 158 181 158 175 133 131 127 134 136 143 133 127 86 89 75 72 47 42 30 14 44 73 67
164 163 169 166 161 158 168 173 172 169 174 152 127 120 125 134 147 134 129 132 117 96 78 62 57 63 38 10 57 45 55 91
158 163 166 163 164 160 162 172 166 165 152 137 122 121 126 129 111 107 99 103 96 98 94 88 66 56 32 327 71 23 26 49
161 156 162 161 160 156 155 168 155 156 154 139 129 132 117 113 101 102 84 97 110 110 98 94 79 66 37 355 80 24 20 26
134 144 156 161 157 150 153 159 155 149 142 140 137 124 114 115 122 111 108 89 95 115 99 90 91 69 43 44 65 32 36 23
144 147 157 156 149 153 156 151 147 146 151 151 133 122 117 112 108 111 104 126 125 110 117 118 96 91 68 69 89 57 45 46
128 113 146 145 147 151 152 140 143 144 151 140 126 119 118 127 118 113 134 134 116 116 123 108 106 106 95 79 70 70 52 51
126 123 128 130 134 142 145 138 135 137 138 137 135 131 138 133 120 130 135 128 128 125 97 92 103 104 89 94 97 81 71 52
145 133 131 138 137 136 125 132 133 136 137 148 140 146 136 133 135 142 147 153 142 124 127 127 120 75 90 83 83 100 98 80
157 154 150 148 144 144 129 126 123 122 130 145 146 143 130 142 144 149 157 143 133 151 157 146 116 86 38 3 78 77 71 82
176 163 156 151 148 149 139 145 144 149 145 147 145 139 144 151 155 147 130 116 71 62 97 84 75 82 77 52 88 61 40 57
179 173 166 159 158 159 152 149 143 148 141 144 144 144 153 156 149 116 105 111 108 91 90 93 94 99 92 85 87 78 76 60
172 167 160 164 161 167 149 150 152 151 153 152 153 155 150 126 118 121 119 123 132 120 123 126 117 107 111 110 106 98 80 63